• In Hungary
  • List of Countries
  • For 7 days
  • Water Temperature
  • Satellite Maps
  • Weather Map
  • News
  • Weather Widgets
  • user-avatar
    Login

    Hourly Weather Obelna

    Today, 24 January, Wednesday

    Time Temperature Precipitation Wind Pressure Humidity
    00:00 -13°C° 0 mm 2 mps 753 mmHg 94%
    01:00 -13°C° 0 mm 2 mps 753 mmHg 95%
    02:00 -13°C° 0 mm 2 mps 754 mmHg 96%
    03:00 -13°C° 0 mm 2 mps 754 mmHg 95%
    04:00 -12°C° 0 mm 2 mps 754 mmHg 95%
    05:00 -12°C° 0 mm 2 mps 754 mmHg 94%
    06:00 -12°C° 0 mm 2 mps 755 mmHg 94%
    07:00 -12°C° 0 mm 2 mps 755 mmHg 94%
    08:00 -10°C° 0 mm 1 mps 755 mmHg 94%
    09:00 -9°C° 0 mm 1 mps 755 mmHg 92%
    10:00 -8°C° 0 mm 1 mps 756 mmHg 91%
    11:00 -7°C° 0 mm 1 mps 756 mmHg 89%
    12:00 -7°C° 0 mm 1 mps 756 mmHg 89%
    13:00 -7°C° 0 mm 1 mps 756 mmHg 89%
    14:00 -7°C° 0 mm 1 mps 756 mmHg 89%
    15:00 -8°C° 0 mm 1 mps 756 mmHg 91%
    16:00 -9°C° 0 mm 1 mps 756 mmHg 92%
    17:00 -10°C° 0 mm 1 mps 756 mmHg 94%
    18:00 -10°C° 0 mm 1 mps 756 mmHg 94%
    19:00 -13°C° 0 mm 2 mps 756 mmHg 94%
    20:00 -13°C° 0 mm 2 mps 756 mmHg 94%
    21:00 -13°C° 0 mm 2 mps 756 mmHg 93%
    22:00 -13°C° 0 mm 2 mps 755 mmHg 92%
    23:00 -13°C° 0 mm 2 mps 755 mmHg 90%

    Tomorrow, 25 January, Thursday

    Time Temperature Precipitation Wind Pressure Humidity
    00:00 -13°C° 0 mm 2 mps 755 mmHg 89%
    01:00 -14°C° 0 mm 3 mps 755 mmHg 88%
    02:00 -14°C° 0 mm 3 mps 756 mmHg 86%
    03:00 -14°C° 0 mm 3 mps 755 mmHg 84%
    04:00 -13°C° 0 mm 3 mps 755 mmHg 83%
    05:00 -13°C° 0 mm 3 mps 755 mmHg 81%
    06:00 -14°C° 0 mm 4 mps 755 mmHg 81%
    07:00 -14°C° 0 mm 4 mps 755 mmHg 80%
    08:00 -14°C° 0 mm 4 mps 755 mmHg 80%
    09:00 -12°C° 0 mm 4 mps 755 mmHg 78%
    10:00 -11°C° 0 mm 4 mps 755 mmHg 76%
    11:00 -11°C° 0 mm 4 mps 755 mmHg 74%
    12:00 -10°C° 0 mm 4 mps 755 mmHg 74%
    13:00 -10°C° 0 mm 4 mps 754 mmHg 75%
    14:00 -10°C° 0 mm 4 mps 754 mmHg 75%
    15:00 -10°C° 0 mm 4 mps 754 mmHg 77%
    16:00 -11°C° 0 mm 4 mps 754 mmHg 80%
    17:00 -12°C° 0 mm 4 mps 754 mmHg 82%
    18:00 -12°C° 0 mm 4 mps 754 mmHg 82%
    19:00 -12°C° 0 mm 4 mps 754 mmHg 82%
    20:00 -12°C° 0 mm 4 mps 754 mmHg 82%
    21:00 -13°C° 0 mm 5 mps 754 mmHg 81%
    22:00 -13°C° 0 mm 5 mps 754 mmHg 81%
    23:00 -12°C° 0 mm 5 mps 754 mmHg 80%

    Day after tomorrow, 26 January, Friday

    Time Temperature Precipitation Wind Pressure Humidity
    00:00 -12°C° 0 mm 5 mps 754 mmHg 80%
    01:00 -12°C° 0 mm 5 mps 755 mmHg 79%
    02:00 -11°C° 0 mm 5 mps 755 mmHg 79%
    03:00 -11°C° 0 mm 5 mps 755 mmHg 79%
    04:00 -11°C° 0 mm 5 mps 755 mmHg 79%
    05:00 -11°C° 0 mm 5 mps 754 mmHg 79%
    06:00 -11°C° 0 mm 5 mps 755 mmHg 78%
    07:00 -11°C° 0 mm 5 mps 755 mmHg 78%
    08:00 -11°C° 0 mm 5 mps 755 mmHg 78%
    09:00 -11°C° 0 mm 5 mps 755 mmHg 77%
    10:00 -11°C° 0 mm 5 mps 756 mmHg 76%
    11:00 -11°C° 0 mm 5 mps 756 mmHg 75%
    12:00 -9°C° 0 mm 4 mps 756 mmHg 75%
    13:00 -9°C° 0 mm 4 mps 756 mmHg 75%
    14:00 -9°C° 0 mm 4 mps 756 mmHg 76%
    15:00 -10°C° 0 mm 4 mps 756 mmHg 77%
    16:00 -10°C° 0 mm 4 mps 756 mmHg 79%
    17:00 -11°C° 0 mm 4 mps 756 mmHg 81%
    18:00 -12°C° 0 mm 4 mps 756 mmHg 81%
    19:00 -12°C° 0 mm 4 mps 756 mmHg 80%
    20:00 -12°C° 0 mm 4 mps 757 mmHg 80%
    21:00 -14°C° 0 mm 4 mps 757 mmHg 80%
    22:00 -14°C° 0 mm 4 mps 757 mmHg 80%
    23:00 -14°C° 0 mm 4 mps 757 mmHg 80%

    27 January, Saturday

    Time Temperature Precipitation Wind Pressure Humidity
    00:00 -14°C° 0 mm 4 mps 757 mmHg 83%
    01:00 -15°C° 0 mm 4 mps 757 mmHg 86%
    02:00 -15°C° 0 mm 4 mps 757 mmHg 89%
    03:00 -15°C° 0 mm 4 mps 757 mmHg 91%
    04:00 -14°C° 0 mm 4 mps 757 mmHg 92%
    05:00 -14°C° 0 mm 4 mps 757 mmHg 94%
    06:00 -14°C° 0 mm 4 mps 757 mmHg 93%
    07:00 -14°C° 0 mm 4 mps 757 mmHg 93%
    08:00 -12°C° 0 mm 4 mps 757 mmHg 93%
    09:00 -12°C° 0 mm 4 mps 757 mmHg 92%
    10:00 -11°C° 0 mm 4 mps 757 mmHg 91%
    11:00 -11°C° 0 mm 5 mps 757 mmHg 90%
    12:00 -11°C° 0 mm 5 mps 757 mmHg 89%
    13:00 -10°C° 0 mm 5 mps 757 mmHg 89%
    14:00 -8°C° 0 mm 5 mps 757 mmHg 89%
    15:00 -8°C° 0 mm 4 mps 757 mmHg 90%
    16:00 -8°C° 0 mm 4 mps 757 mmHg 91%
    17:00 -8°C° 0 mm 4 mps 757 mmHg 92%
    18:00 -8°C° 0 mm 4 mps 757 mmHg 92%
    19:00 -8°C° 0 mm 4 mps 757 mmHg 92%
    20:00 -8°C° 0 mm 4 mps 756 mmHg 92%
    21:00 -8°C° 0 mm 4 mps 756 mmHg 91%
    22:00 -8°C° 0 mm 4 mps 756 mmHg 91%
    23:00 -8°C° 0 mm 4 mps 756 mmHg 91%

    28 January, Sunday

    Time Temperature Precipitation Wind Pressure Humidity
    00:00 -8°C° 0 mm 5 mps 756 mmHg 90%
    01:00 -8°C° 0 mm 5 mps 755 mmHg 90%
    02:00 -8°C° 0 mm 5 mps 755 mmHg 90%
    03:00 -8°C° 0.1 mm 5 mps 755 mmHg 91%
    04:00 -8°C° 0.1 mm 5 mps 754 mmHg 92%
    05:00 -8°C° 0.1 mm 4 mps 754 mmHg 92%
    06:00 -8°C° 0.2 mm 4 mps 754 mmHg 92%
    07:00 -8°C° 0.2 mm 4 mps 754 mmHg 92%
    08:00 -8°C° 0.2 mm 4 mps 754 mmHg 92%
    09:00 -8°C° 0.1 mm 4 mps 753 mmHg 92%
    10:00 -7°C° 0.1 mm 4 mps 753 mmHg 92%
    11:00 -7°C° 0.1 mm 4 mps 753 mmHg 91%
    12:00 -5°C° 0 mm 4 mps 752 mmHg 91%
    13:00 -5°C° 0 mm 4 mps 752 mmHg 92%
    14:00 -5°C° 0 mm 4 mps 751 mmHg 92%
    15:00 -4°C° 0 mm 4 mps 751 mmHg 92%
    16:00 -4°C° 0 mm 4 mps 751 mmHg 93%
    17:00 -4°C° 0 mm 4 mps 750 mmHg 94%
    18:00 -4°C° 0.1 mm 4 mps 749 mmHg 94%
    19:00 -4°C° 0.1 mm 4 mps 749 mmHg 94%
    20:00 -4°C° 0.1 mm 4 mps 748 mmHg 94%
    21:00 -4°C° 0.2 mm 4 mps 747 mmHg 94%
    22:00 -5°C° 0.2 mm 5 mps 747 mmHg 94%
    23:00 -5°C° 0.2 mm 5 mps 746 mmHg 94%

    29 January, Monday

    Time Temperature Precipitation Wind Pressure Humidity
    00:00 -5°C° 0.5 mm 5 mps 745 mmHg 94%
    01:00 -5°C° 0.5 mm 5 mps 744 mmHg 94%
    02:00 -5°C° 0.5 mm 5 mps 743 mmHg 94%
    03:00 -3°C° 0.4 mm 4 mps 742 mmHg 94%
    04:00 -3°C° 0.4 mm 4 mps 742 mmHg 94%
    05:00 -3°C° 0.4 mm 4 mps 741 mmHg 94%
    06:00 -2°C° 0.2 mm 3 mps 741 mmHg 95%
    07:00 -2°C° 0.2 mm 3 mps 740 mmHg 96%
    08:00 -2°C° 0.2 mm 2 mps 740 mmHg 96%
    09:00 -2°C° 0.1 mm 2 mps 740 mmHg 96%
    10:00 -1°C° 0.1 mm 2 mps 740 mmHg 97%
    11:00 -1°C° 0.1 mm 2 mps 740 mmHg 97%
    12:00 -1°C° 0 mm 2 mps 740 mmHg 97%
    13:00 +1°C° 0 mm 2 mps 741 mmHg 97%
    14:00 +1°C° 0 mm 2 mps 741 mmHg 98%
    15:00 +1°C° 0.1 mm 2 mps 741 mmHg 97%
    16:00 -1°C° 0.1 mm 2 mps 741 mmHg 96%
    17:00 -1°C° 0.1 mm 2 mps 742 mmHg 95%
    18:00 -1°C° 0 mm 2 mps 742 mmHg 96%
    19:00 -1°C° 0 mm 2 mps 742 mmHg 96%
    20:00 -1°C° 0 mm 2 mps 742 mmHg 96%
    21:00 -2°C° 0 mm 3 mps 742 mmHg 96%
    22:00 -2°C° 0 mm 3 mps 742 mmHg 96%
    23:00 -4°C° 0 mm 3 mps 742 mmHg 96%
    Show more